Regional Weather Roundup
Issued by NWS Lake Charles, LA

Home | Current Version | Previous Version | Text Only | Print | Product List | Glossary On
Versions: 1 2 3 4 5 6 7 8 9 10 11 12 13 14 15 16 17 18 19 20 21 22 23 24 25 26 27
000
ASUS44 KLCH 102110
RWRLCH
REGIONAL WEATHER ROUNDUP
NATIONAL WEATHER SERVICE LAKE CHARLES LA
300 PM CST SAT DEC 10 2016

Note: "fair" indicates few or no clouds below 12,000 feet with no
significant weather and/or obstructions to visibility.


ACROSS SOUTHEAST TEXAS

CITY           SKY/WX    TMP DP  RH WIND       PRES   REMARKS
BEAUMONT       CLOUDY    54  23  30 E13       30.38F
BEAUMONT CITY  CLOUDY    57  23  27 SE8       30.39F
ORANGE         CLOUDY    54  20  25 E7        30.40F
JASPER         MOSUNNY   57  26  30 E6        30.40F
$$

ACROSS CENTRAL LOUISIANA

CITY           SKY/WX    TMP DP  RH WIND       PRES   REMARKS
LEESVILLE      SUNNY     55  24  30 E7        30.37F
FULLERTON      FAIR      55  20  25 CALM      30.36F
ALEXANDRIA INT SUNNY     53  19  26 SE6       30.40F
ESLER FIELD    SUNNY     54  21  27 VRB6      30.40F
DERIDDER       FAIR      56  22  26 E5        30.40F
OAKDALE        CLEAR     55  21  26 CALM      30.40F
OPELOUSAS      FAIR      54  22  29 NE5       30.40F
$$

ACROSS SOUTHWEST AND SOUTH CENTRAL LOUISIANA

CITY           SKY/WX    TMP DP  RH WIND       PRES   REMARKS
SULPHUR        CLEAR     56  27  32 E9        30.40S
LAKE CHARLES   SUNNY     54  27  35 E9        30.39F
CHENNAULT INT  SUNNY     57  27  30 E10       30.40F
CAMERON PHI    CLEAR     54  27  35 E10       30.38
DEQUINCY       FAIR      55  24  29 E8        30.39F
JENNINGS       FAIR      54  27  35 NE3       30.40F
LAFAYETTE      SUNNY     56  19  23 NE8       30.40F
NEW IBERIA     SUNNY     57  17  21 E9        30.40F
ABBEVILLE      FAIR      55  23  28 NE6       30.40S
PATTERSON      SUNNY    N/A N/A N/A NE10      30.39F
SALT POINT     NOT AVBL
$$

SELECTED SITES ACROSS THE REGION

CITY           SKY/WX    TMP DP  RH WIND       PRES   REMARKS
HOUSTON BUSH   CLOUDY    56  34  43 SE10      30.36F
HOUSTON HOBBY  CLOUDY    54  39  57 E13       30.36F
GALVESTON      CLOUDY    58  46  64 E14       30.37F
COLLEGE STAT   CLOUDY    53  36  52 SE9       30.33F
CONROE         CLOUDY    52  28  39 SE8       30.36F
HUNTSVILLE     CLOUDY    51  28  41 VRB6      30.35F
LUFKIN         CLOUDY    50  27  40 SE5       30.37F
SHREVEPORT     CLOUDY    50  27  40 SE6       30.37F
MONROE         SUNNY     51  23  33 VRB3      30.42F
NATCHEZ MS     SUNNY     55  18  22 S5        30.40F
BATON ROUGE    SUNNY     57  19  22 N6        30.40F
N.O. INTL ARPT MOSUNNY   52  23  32 NE6       30.40F
SLIDELL        SUNNY     56  16  20 VRB5      30.39F
$$

MARINE REPORTS

STATION/POSITION TIME  SKY/WX   TEMP    WIND        PRES    VSBY
                                AIR SEA DIR/SP/G
                 (UTC)          (F)     (DEG/KT/KT) (MB)    (MI)
BUOY 30 S HIGH I 2050            56 65   80/ 14/ 16 1028.4F
WVE H/P(F/S)=  4/ 5

SEA RIM ST PARK  2100            53      80/ 10/ 12 1029.5F
PORT ARTHUR      2042               55   90/  6/  8 1029.3F
SABINE PASS N    2042            53 54   70/  8/ 10 1030.1F
TEXAS POINT      NOT AVBL
CALCASIEU PASS   2042            53 53  100/  9/ 14   N/A
LK CHARLES BEACH 2042            55 53              1029.5F
MARSH ISLAND     2000            50                   N/A
FRESH WATER LOCK 2042            54 52   60/  8/ 12 1029.8F
AMERADA PASS     2042            55 54   80/  9/ 11 1028.8F
$$




USA.gov is the U.S. government's official web portal to all federal, state and local government web resources and services.